Location: Beetenbrück
(52.8113°N, 9.5946°E)
Time: 21:27:36
(UTC+00:00)

Cosmos 1346 Rocket - Pass Details

Date: 14 April 2026
Orbit: 472 x 485 km, 81.2° (Epoch: 12 May)

Event Time Altitude Azimuth Distance (km) Brightness Sun altitude
Rises 20:07:55 0° 351° (N) 2,542 7.0 -15.2°
Reaches altitude 10° 20:10:07 10° 358° (N) 1,656 5.9 -15.4°
Maximum altitude 20:13:35 43° 72° (ENE) 684 3.0 -15.8°
Enters shadow 20:14:33 34° 113° (ESE) 803 3.1 -15.9°
